STARLINK-31102 (58715 NORAD) Tracking and Keplerian Element Data

This shows tracking and keplerian element data for the satellite.

Feedback or suggestion? Click here.




ElementValue
Catalog58715
NameSTARLINK-31102
Epoch Orbit270
Epoch Day13.25002315
Epoch Year2024
RAAN198.781
Inclination53.1607
Eccentricity8.83E-05
Argument of Perigee83.9488
Mean Anonmoly154.0392
Mean Motion15.51446666
Decay Rate-0.01744287
L11 58715U 24002L 24013.25002315 -.01744287 00000+0 -32626-1 0 9996
L22 58715 53.1607 198.7810 0000883 83.9488 154.0392 15.51446666 2700



Live tracking and technical data element details for STARLINK-31102 (NORAD 58715). STARLINK-31102 can be tracked NOW for your location showing map with azimuth and elevation plus other details from your city location.







IsCatalogInMostPopularTable: catalog: 58715, numindb: 25
Update: records affected: 1



GetName: 58715 STARLINK-31102

Hit Count: updated at: Wed, 17 Apr 2024 03:10:13 GMT